Notices

What's New in latest Release from April 7th, 2021:

- Updated Glossary, including Speed of Maximum Gust, and Total Hourly Precipitation

- Updated national and regional climate services offices contacts and prices information

- Addition of station inventory lists for 1981-2010, 1971-2000, and 1961-1990 Normals.

If you haven't already, please take our survey and provide feedback about our website: https://eccc.sondage-survey.ca/f/LanguageSelection.aspx?s=442ca660-fcf1-47c0-95a9-59707d6fd709

Hourly Data Report for November 20, 2019

PINAWA
MANITOBA
Current Station Operator: ECCC - MSC

50°10'38.020" N
96°03'53.000" W
268.00 m
503B1ER
71448
WEA

Download Data

Hourly Data (November 2019)
Hourly Data Report for November 20, 2019
TIME
LST
Temp Definition
°C
Dew Point Definition
°C
Rel Hum Definition
%
Precip. Amount Definition
mm

Wind Dir Definition
10's deg

Wind Spd Definition
km/h
Visibility Definition
km
Stn Press Definition
kPa
Hmdx Definition


Wind Chill Definition


Weather Definition


00:00 -0.7 LegendMM LegendMM 0.0 34 5   98.20   -2 LegendNANA
01:00 -0.8 LegendMM LegendMM 0.0 33 4   98.28   -2 LegendNANA
02:00 -1.0 LegendMM LegendMM 0.0 34 5   98.33   -3 LegendNANA
03:00 -1.0 LegendMM LegendMM 0.0 36 3   98.40   -2 LegendNANA
04:00 -1.1 LegendMM LegendMM 0.0 35 4   98.43   -2 LegendNANA
05:00 -1.3 LegendMM LegendMM 0.0 3 5   98.45   -3 LegendNANA
06:00 -1.4 LegendMM LegendMM 0.0 3 6   98.44   -4 LegendNANA
07:00 -1.4 LegendMM LegendMM 0.0 7 4   98.44   -3 LegendNANA
08:00 -1.5 LegendMM LegendMM 0.0 3 4   98.52   -3 LegendNANA
09:00 -1.5 LegendMM LegendMM 0.0 2 4   98.57   -3 LegendNANA
10:00 -1.3 LegendMM LegendMM 0.0 35 2   98.62   -2 LegendNANA
11:00 -1.3 LegendMM LegendMM 0.0 36 5   98.59   -3 LegendNANA
12:00 -1.6 LegendMM LegendMM 0.6 34 6   98.58   -4 LegendNANA
13:00 -2.5 LegendMM LegendMM 0.2 35 11   98.58   -7 LegendNANA
14:00 -3.4 LegendMM LegendMM 0.2 36 11   98.57   -8 LegendNANA
15:00 -4.0 LegendMM LegendMM 0.3 35 12   98.62   -9 LegendNANA
16:00 -4.3 LegendMM LegendMM 0.3 35 10   98.65   -8 LegendNANA
17:00 -4.6 LegendMM LegendMM 0.3 35 9   98.62   -8 LegendNANA
18:00 -5.1 LegendMM LegendMM 0.3 35 8   98.63   -9 LegendNANA
19:00 -5.7 LegendMM LegendMM 0.0 33 9   98.64   -10 LegendNANA
20:00 -5.8 LegendMM LegendMM 0.0 33 9   98.66   -10 LegendNANA
21:00 -6.9 LegendMM LegendMM 0.0 36 14   98.68   -13 LegendNANA
22:00 -7.5 LegendMM LegendMM 0.0 34 16   98.72   -14 LegendNANA
23:00 -8.2 LegendMM LegendMM 0.0 34 13   98.73   -14 LegendNANA

Notes on Data Quality.

Legend

  • E = Estimated
  • M = Missing
  • NA = Not Available*
  • [empty] = Indicates an unobserved value
Date modified: